Weather History for Broome Airport, Western Australia

Change the Weather History Date:

Saturday, December 21, 2013

  Actual Average Record
Temperature  
Mean Temperature 88 °F -  
Max Temperature 93 °F 92 °F - ()
Min Temperature 82 °F 79 °F - ()
Cooling Degree Days 23    
Growing Degree Days 38 (Base 50)    
Moisture  
Dew Point 78 °F    
Average Humidity 71    
Maximum Humidity 84    
Minimum Humidity 52    
Precipitation  
Precipitation 0.00 in 0.21 in - ()
Sea Level Pressure  
Sea Level Pressure 29.74 in    
Wind  
Wind Speed 10 mph ()    
Max Wind Speed 15 mph    
Max Gust Speed -    
Visibility 7.6 miles    
Events      
T = Trace of Precipitation, MM = Missing Value Source: Averaged Metar Reports

Daily Weather History Graph

Daily Weather History Graph

Search for Another Location

Airport:

Trip Planner

Search our weather history database for the weather conditions in past years. The results will help you decide how hot, cold, wet, or windy it might be!

Date:

Astronomy

Dec. 21, 2013 Rise Set
Actual Time 5:12 AM AWST 6:25 PM AWST
Civil Twilight 4:48 AM AWST 6:49 PM AWST
Nautical Twilight 4:19 AM AWST 7:18 PM AWST
Astronomical Twilight 3:50 AM AWST 7:47 PM AWST
Moon 9:08 PM AWST (12/21) 8:12 AM AWST (12/21)
Length of Visible Light 14h 00m
Length of Day
13h 12m
Waning Gibbous, 88% of the Moon is Illuminated
Dec 21
Waning Gibbous
Dec 25
Last Quarter
Jan 1
New
Jan 8
First Quarter
Jan 16
Full

Hourly Weather History & Observations

Time (AWST) Temp. Heat Index Dew Point Humidity Pressure Visibility Wind Dir Wind Speed Gust Speed Precip Events Conditions
12:00 AM 85 °F - 79 °F 77% 29.74 in - NW 10.4 mph - -  
12:00 AM 86.0 °F 99.3 °F 78.8 °F 79% 29.74 in 6.2 mi NW 10.4 mph - N/A   Unknown
12:30 AM 86.0 °F 99.3 °F 78.8 °F 79% 29.71 in 6.2 mi NNW 10.4 mph - N/A   Unknown
1:00 AM 86.0 °F 99.3 °F 78.8 °F 79% 29.71 in 6.2 mi NW 11.5 mph - N/A   Unknown
1:30 AM 86.0 °F 99.3 °F 78.8 °F 79% 29.71 in 6.2 mi NW 12.7 mph - N/A   Unknown
2:00 AM 86 °F - 79 °F 75% 29.71 in - NW 10.4 mph - -  
2:00 AM 86.0 °F 99.3 °F 78.8 °F 79% 29.71 in 6.2 mi NW 10.4 mph - N/A   Unknown
2:30 AM 86.0 °F 99.3 °F 78.8 °F 79% 29.71 in 6.2 mi NW 11.5 mph - N/A   Unknown
3:00 AM 86 °F - 79 °F 73% 29.71 in - NW 10.4 mph - -  
3:00 AM 86.0 °F 99.3 °F 78.8 °F 79% 29.71 in 6.2 mi NW 10.4 mph - N/A   Unknown
3:30 AM 86.0 °F 99.3 °F 78.8 °F 79% 29.71 in 6.2 mi NW 12.7 mph - N/A   Unknown
4:00 AM 86.0 °F 99.3 °F 78.8 °F 79% 29.71 in 6.2 mi NW 11.5 mph - N/A   Unknown
4:30 AM 86.0 °F 99.3 °F 78.8 °F 79% 29.74 in 6.2 mi West 9.2 mph - N/A   Scattered Clouds
5:00 AM 86 °F - 78 °F 71% 29.74 in - WNW 9.2 mph - -  
5:00 AM 86.0 °F 99.3 °F 78.8 °F 79% 29.74 in 6.2 mi WNW 9.2 mph - N/A   Scattered Clouds
5:30 AM 86.0 °F 96.9 °F 77.0 °F 74% 29.74 in 6.2 mi West 11.5 mph - N/A   Unknown
6:00 AM 86 °F - 77 °F 68% 29.76 in - West 10.4 mph - -  
6:00 AM 86.0 °F 96.9 °F 77.0 °F 74% 29.74 in 6.2 mi West 10.4 mph - N/A   Scattered Clouds
6:30 AM 86.0 °F 99.3 °F 78.8 °F 79% 29.77 in 6.2 mi WNW 9.2 mph - N/A   Scattered Clouds
7:00 AM 87.8 °F 99.7 °F 77.0 °F 70% 29.77 in 6.2 mi West 9.2 mph - N/A   Mostly Cloudy
7:30 AM 87.8 °F 99.7 °F 77.0 °F 70% 29.77 in 6.2 mi WNW 9.2 mph - N/A   Mostly Cloudy
8:00 AM 89 °F - 77 °F 60% 29.78 in - WNW 9.2 mph - -  
8:00 AM 87.8 °F 99.7 °F 77.0 °F 70% 29.77 in 6.2 mi WNW 9.2 mph - N/A   Mostly Cloudy
8:30 AM 89.6 °F 102.2 °F 77.0 °F 66% 29.77 in 6.2 mi West 8.1 mph - N/A   Scattered Clouds
9:00 AM 90 °F - 77 °F 58% 29.78 in 19 mi West 6.9 mph - -   Partly Cloudy
9:00 AM 89.6 °F 102.2 °F 77.0 °F 66% 29.77 in 6.2 mi West 6.9 mph - N/A   Partly Cloudy
9:30 AM 89.6 °F 102.2 °F 77.0 °F 66% 29.77 in 6.2 mi WSW 8.1 mph - N/A   Partly Cloudy
10:00 AM 91.4 °F 105.1 °F 77.0 °F 63% 29.77 in 6.2 mi West 8.1 mph - N/A   Partly Cloudy
10:30 AM 91.4 °F 100.1 °F 73.4 °F 55% 29.77 in 6.2 mi West 8.1 mph - N/A   Partly Cloudy
11:00 AM 91 °F - 75 °F 52% 29.77 in - West 9.2 mph - -  
11:00 AM 91.4 °F 102.5 °F 75.2 °F 59% 29.77 in 6.2 mi West 9.2 mph - N/A   Unknown
11:30 AM 91.4 °F 105.1 °F 77.0 °F 63% 29.77 in 6.2 mi West 11.5 mph - N/A   Partly Cloudy
12:00 PM 91 °F - 77 °F 56% 29.76 in 19 mi WNW 12.7 mph - -   Scattered Clouds
12:00 PM 91.4 °F 105.1 °F 77.0 °F 63% 29.74 in 6.2 mi WNW 12.7 mph - N/A   Mostly Cloudy
12:30 PM 91.4 °F 105.1 °F 77.0 °F 63% 29.74 in 6.2 mi WNW 11.5 mph - N/A   Mostly Cloudy
1:00 PM 91.4 °F 105.1 °F 77.0 °F 63% 29.71 in 6.2 mi WNW 13.8 mph - N/A   Unknown
1:30 PM 91.4 °F 105.1 °F 77.0 °F 63% 29.71 in 6.2 mi WNW 15.0 mph - N/A   Partly Cloudy
2:00 PM 91 °F - 77 °F 56% 29.73 in - WNW 12.7 mph - -  
2:00 PM 91.4 °F 105.1 °F 77.0 °F 63% 29.71 in 6.2 mi WNW 12.7 mph - N/A   Partly Cloudy
2:30 PM 91.4 °F 107.2 °F 78.8 °F 66% 29.71 in 6.2 mi WNW 11.5 mph - N/A   Partly Cloudy
3:00 PM 90 °F - 78 °F 60% 29.71 in 19 mi NW 13.8 mph - -   Partly Cloudy
3:00 PM 89.6 °F 102.2 °F 77.0 °F 66% 29.71 in 6.2 mi NW 13.8 mph - N/A   Partly Cloudy
3:30 PM 89.6 °F 104.7 °F 78.8 °F 70% 29.71 in 6.2 mi NW 13.8 mph - N/A   Partly Cloudy
4:00 PM 89.6 °F 104.7 °F 78.8 °F 70% 29.71 in 6.2 mi NNW 12.7 mph - N/A   Partly Cloudy
4:30 PM 89.6 °F 104.7 °F 78.8 °F 70% 29.71 in 6.2 mi NNW 12.7 mph - N/A   Partly Cloudy
5:00 PM 89 °F - 78 °F 64% 29.70 in - NNW 13.8 mph - -  
5:00 PM 89.6 °F 104.7 °F 78.8 °F 70% 29.68 in 6.2 mi NNW 13.8 mph - N/A   Partly Cloudy
5:30 PM 87.8 °F 99.7 °F 77.0 °F 70% 29.68 in 6.2 mi NNW 13.8 mph - N/A   Partly Cloudy
6:00 PM 87 °F - 78 °F 69% 29.72 in 19 mi NW 11.5 mph - -   Partly Cloudy
6:00 PM 87.8 °F 102.5 °F 78.8 °F 75% 29.71 in - NW 11.5 mph - N/A   Clear
6:30 PM 86.0 °F 99.3 °F 78.8 °F 79% 29.71 in 6.2 mi NNW 9.2 mph - N/A   Unknown
7:00 PM 86.0 °F 99.3 °F 78.8 °F 79% 29.74 in - North 8.1 mph - N/A   Clear
7:30 PM 86.0 °F 99.3 °F 78.8 °F 79% 29.74 in - North 6.9 mph - N/A   Clear
8:00 PM 86 °F - 78 °F 71% 29.76 in - North 8.1 mph - -  
8:00 PM 86.0 °F 99.3 °F 78.8 °F 79% 29.74 in - North 8.1 mph - N/A   Clear
8:30 PM 86.0 °F 96.9 °F 77.0 °F 74% 29.77 in - North 8.1 mph - N/A   Clear
9:00 PM 85 °F - 77 °F 71% 29.78 in 19 mi North 8.1 mph - -   Partly Cloudy
9:00 PM 86.0 °F 96.9 °F 77.0 °F 74% 29.77 in - North 8.1 mph - N/A   Clear
9:30 PM 84.2 °F 94.1 °F 77.0 °F 79% 29.77 in 6.2 mi North 6.9 mph - N/A   Unknown
10:00 PM 84.2 °F 94.1 °F 77.0 °F 79% 29.77 in 6.2 mi North 8.1 mph - N/A   Unknown
10:30 PM 84.2 °F 94.1 °F 77.0 °F 79% 29.77 in 6.2 mi North 9.2 mph - N/A   Unknown
11:00 PM 83 °F - 77 °F 77% 29.77 in - North 9.2 mph - -  
11:00 PM 84.2 °F 94.1 °F 77.0 °F 79% 29.77 in 6.2 mi North 9.2 mph - N/A   Unknown
11:30 PM 82.4 °F 90.9 °F 77.0 °F 84% 29.74 in 6.2 mi NNW 9.2 mph - N/A   Unknown